STARLINK-1279 (45360 NORAD) Tracking and Keplerian Element Data

This shows tracking and keplerian element data for the satellite.

Feedback or suggestion? Click here.




ElementValue
Catalog45360
NameSTARLINK-1279
Epoch Orbit1736
Epoch Day185.50001157
Epoch Year2020
RAAN93.0013
Inclination53.0024
Eccentricity0.0001539
Argument of Perigee54.8886
Mean Anonmoly193.7231
Mean Motion15.18154225
Decay Rate-0.01052523
L11 45360U 20019A 20185.50001157 -.01052523 00000-0 -55582-1 0 9991
L22 45360 53.0024 93.0013 0001539 54.8886 193.7231 15.18154225 17364

Live tracking and technical data element details for STARLINK-1279 (NORAD 45360). STARLINK-1279 can be tracked NOW for your location showing map with azimuth and elevation plus other details from your city location.

Track the satellite on the map from your city or location and see movement details for azimuth, elevation, latitude, longitude, range, height, and movement on the map or in text.







IsCatalogInMostPopularTable: catalog: 45360, numindb: 31
Update: records affected: 1



GetName: 45360 STARLINK-1279

Hit Count: updated at: Fri, 03 Jul 2020 17:10:58 GMT